Weather History for Eagle River, WI

Change the Weather History Date:

Monday, February 17, 2014

  Actual Average Record
Temperature  
Mean Temperature 15 °F -  
Max Temperature 22 °F 25 °F 44 °F (2011)
Min Temperature 8 °F 0 °F -22 °F (2013)
Degree Days  
Heating Degree Days 50    
Moisture  
Dew Point 12 °F    
Average Humidity 82    
Maximum Humidity 88    
Minimum Humidity 79    
Precipitation  
Precipitation 0.00 in - - ()
Sea Level Pressure  
Sea Level Pressure 29.83 in    
Wind  
Wind Speed 7 mph (SSE)    
Max Wind Speed 15 mph    
Max Gust Speed 28 mph    
Visibility 4 miles    
Events Snow    
Averages and records for this station are not official NWS values.
T = Trace of Precipitation, MM = Missing Value Source: NWS Daily Summary

Daily Weather History Graph

Daily Weather History Graph

Search for Another Location

Airport:

Trip Planner

Search our weather history database for the weather conditions in past years. The results will help you decide how hot, cold, wet, or windy it might be!

Date:

Astronomy

Feb. 17, 2014 Rise Set
Actual Time 6:56 AM CST 5:26 PM CST
Civil Twilight 6:25 AM CST 5:57 PM CST
Nautical Twilight 5:50 AM CST 6:31 PM CST
Astronomical Twilight 5:16 AM CST 7:06 PM CST
Moon 8:32 PM CST (2/17) 7:46 AM CST (2/17)
Length of Visible Light 11h 31m
Length of Day
10h 30m
Waning Gibbous, 93% of the Moon is Illuminated
Feb 17
Waning Gibbous
Feb 22
Last Quarter
Mar 1
New
Mar 8
First Quarter
Mar 16
Full

Hourly Weather History & Observations

Time (CST) Temp. Windchill Dew Point Humidity Pressure Visibility Wind Dir Wind Speed Gust Speed Precip Events Conditions
12:15 AM 9.0 °F -2.2 °F 3.7 °F 79% 30.13 in 10.0 mi SSE 6.9 mph - N/A   Clear
12:35 AM 9.0 °F -3.2 °F 3.7 °F 79% 30.13 in 10.0 mi South 8.1 mph - N/A   Clear
12:55 AM 9.0 °F -3.2 °F 3.6 °F 79% 30.14 in 10.0 mi SSE 8.1 mph - N/A   Scattered Clouds
1:15 AM 8.8 °F -1.1 °F 3.6 °F 79% 30.14 in 10.0 mi SSE 5.8 mph - N/A   Mostly Cloudy
1:35 AM 8.6 °F -1.3 °F 3.2 °F 79% 30.13 in 10.0 mi SSE 5.8 mph - N/A   Mostly Cloudy
1:55 AM 8.6 °F -2.6 °F 3.4 °F 79% 30.12 in 7.0 mi SSE 6.9 mph - N/A Snow Light Snow
2:15 AM 8.8 °F 2.2 °F 3.9 °F 81% 30.12 in 4.0 mi SSE 3.5 mph - N/A Snow Light Snow
2:35 AM 9.3 °F -0.5 °F 4.6 °F 81% 30.11 in 4.0 mi South 5.8 mph - N/A Snow Light Snow
2:55 AM 9.7 °F -2.4 °F 5.0 °F 81% 30.09 in 3.0 mi SSE 8.1 mph - N/A Snow Light Snow
3:15 AM 10.4 °F -0.4 °F 5.9 °F 82% 30.08 in 5.0 mi SE 6.9 mph - N/A Snow Light Snow
3:35 AM 10.8 °F -1.1 °F 6.1 °F 81% 30.07 in 7.0 mi SSE 8.1 mph - N/A Snow Light Snow
3:55 AM 11.3 °F -0.4 °F 6.8 °F 82% 30.06 in 7.0 mi SSE 8.1 mph - N/A Snow Light Snow
4:15 AM 11.8 °F -0.7 °F 7.3 °F 82% 30.05 in 7.0 mi SSE 9.2 mph - N/A Snow Light Snow
4:35 AM 12.2 °F -0.2 °F 7.7 °F 82% 30.03 in 2.0 mi SSE 9.2 mph - N/A Snow Light Snow
4:55 AM 12.6 °F 2.2 °F 8.1 °F 82% 30.03 in 1.2 mi SSE 6.9 mph - N/A Snow Light Snow
5:15 AM 12.9 °F 1.6 °F 8.6 °F 83% 30.01 in 3.0 mi SSE 8.1 mph - N/A Snow Light Snow
5:35 AM 13.6 °F 1.6 °F 9.3 °F 83% 29.98 in 2.0 mi SE 9.2 mph - N/A Snow Light Snow
5:55 AM 14.4 °F 3.3 °F 10.0 °F 83% 29.96 in 1.8 mi SE 8.1 mph - N/A Snow Light Snow
6:15 AM 14.9 °F 4.0 °F 10.8 °F 84% 29.94 in 1.8 mi SSE 8.1 mph - N/A Snow Light Snow
6:35 AM 15.4 °F 5.6 °F 11.3 °F 84% 29.94 in 1.0 mi SSE 6.9 mph - N/A Snow Snow
6:55 AM 15.8 °F 4.2 °F 11.3 °F 82% 29.92 in 7.0 mi SSE 9.2 mph - N/A Snow Light Snow
7:15 AM 16.5 °F 5.1 °F 11.8 °F 82% 29.92 in 10.0 mi SSE 9.2 mph - N/A   Overcast
7:35 AM 17.4 °F 6.2 °F 12.7 °F 82% 29.91 in 7.0 mi SSE 9.2 mph 20.7 mph N/A   Overcast
7:55 AM 18.0 °F 4.8 °F 13.1 °F 81% 29.89 in 7.0 mi SSE 12.7 mph 20.7 mph N/A   Overcast
8:15 AM 18.3 °F 5.2 °F 13.6 °F 82% 29.88 in 5.0 mi SSE 12.7 mph 19.6 mph N/A   Haze
8:35 AM 18.5 °F 6.1 °F 13.8 °F 82% 29.88 in 7.0 mi SSE 11.5 mph 17.3 mph N/A   Overcast
8:55 AM 19.0 °F 6.1 °F 14.0 °F 81% 29.86 in 7.0 mi SSE 12.7 mph 20.7 mph N/A   Overcast
9:15 AM 19.8 °F 6.5 °F 14.9 °F 81% 29.84 in 5.0 mi SSE 13.8 mph 24.2 mph N/A   Haze
9:35 AM 19.9 °F 7.3 °F 15.6 °F 83% 29.84 in 4.0 mi SSE 12.7 mph 27.6 mph N/A   Haze
9:55 AM 20.3 °F 7.7 °F 15.8 °F 83% 29.83 in 5.0 mi SSE 12.7 mph 21.9 mph N/A   Overcast
10:15 AM 20.8 °F 11.2 °F 16.2 °F 82% 29.83 in 5.0 mi SSE 8.1 mph 19.6 mph N/A   Haze
10:35 AM 21.2 °F 8.9 °F 16.2 °F 81% 29.82 in 5.0 mi SSE 12.7 mph 19.6 mph N/A   Haze
10:55 AM 21.4 °F 9.1 °F 16.3 °F 81% 29.82 in 5.0 mi SSE 12.7 mph 25.3 mph N/A   Haze
11:15 AM 21.7 °F 10.2 °F 16.5 °F 80% 29.81 in 3.0 mi SSE 11.5 mph 17.3 mph N/A Snow Light Snow
11:35 AM 21.7 °F 8.5 °F 16.5 °F 80% 29.80 in 3.0 mi SSE 15.0 mph 19.6 mph N/A Snow Light Snow
11:55 AM 21.6 °F 9.3 °F 16.7 °F 82% 29.78 in 0.8 mi SSE 12.7 mph 18.4 mph N/A Snow Light Snow
12:15 PM 21.2 °F 10.1 °F 16.7 °F 83% 29.76 in 0.8 mi SE 10.4 mph 16.1 mph N/A Snow Light Snow
12:35 PM 21.6 °F 10.6 °F 16.7 °F 82% 29.75 in 0.8 mi SSE 10.4 mph 16.1 mph N/A Snow Light Snow
12:50 PM 21.2 °F 9.5 °F 16.7 °F 83% 29.74 in 0.5 mi SSE 11.5 mph - N/A Snow Light Snow
1:15 PM 22.1 °F 10.6 °F 16.7 °F 80% 29.73 in 1.2 mi SE 11.5 mph 17.3 mph N/A Snow Light Snow
1:35 PM 22.5 °F 12.4 °F 16.7 °F 79% 29.72 in 1.0 mi SE 9.2 mph 19.6 mph N/A Snow Light Snow
1:55 PM 22.8 °F 11.5 °F 17.2 °F 79% 29.70 in 1.0 mi SSE 11.5 mph - N/A Snow Light Snow
2:15 PM 22.6 °F 13.4 °F 16.9 °F 79% 29.69 in 1.2 mi SE 8.1 mph - N/A Snow Light Snow
2:35 PM 22.5 °F 12.4 °F 16.9 °F 79% 29.68 in 2.0 mi SSE 9.2 mph 16.1 mph N/A Snow Light Snow
2:55 PM 22.5 °F 12.4 °F 17.6 °F 82% 29.68 in 0.8 mi SSE 9.2 mph - N/A Snow Light Snow
3:15 PM 22.5 °F 13.2 °F 18.0 °F 83% 29.68 in 0.8 mi SSE 8.1 mph - N/A Snow Light Snow
3:35 PM 22.5 °F 13.2 °F 17.6 °F 82% 29.67 in 2.0 mi SE 8.1 mph - N/A Snow Light Snow
3:55 PM 22.1 °F 15.9 °F 17.6 °F 83% 29.67 in 1.2 mi SSE 4.6 mph - N/A Snow Light Snow
4:15 PM 22.1 °F 13.7 °F 17.6 °F 83% 29.68 in 1.2 mi SSE 6.9 mph - N/A Snow Light Snow
4:35 PM 21.6 °F 12.1 °F 16.9 °F 82% 29.67 in 1.2 mi SSE 8.1 mph - N/A Snow Light Snow
4:55 PM 21.0 °F 12.4 °F 16.2 °F 81% 29.67 in 1.8 mi SSE 6.9 mph - N/A Snow Light Snow
5:15 PM 20.8 °F 13.2 °F 16.3 °F 83% 29.67 in 1.5 mi SSE 5.8 mph - N/A Snow Light Snow
5:30 PM 20.7 °F 13.0 °F 16.3 °F 83% 29.67 in 2.0 mi SSE 5.8 mph - N/A Snow Light Snow
5:55 PM 20.3 °F 15.4 °F 15.8 °F 83% 29.67 in 5.0 mi SSE 3.5 mph - N/A Snow Light Snow
6:15 PM 20.1 °F 13.6 °F 15.8 °F 83% 29.67 in 5.0 mi SSE 4.6 mph - N/A Snow Light Snow
6:35 PM 20.1 °F 12.3 °F 15.3 °F 81% 29.68 in 5.0 mi SSE 5.8 mph - N/A Snow Light Snow
6:55 PM 19.8 °F 11.9 °F 14.5 °F 80% 29.68 in 3.0 mi SE 5.8 mph - N/A Snow Light Snow
7:15 PM 19.2 °F 11.3 °F 14.0 °F 80% 29.68 in 4.0 mi SSE 5.8 mph - N/A Snow Light Snow
7:35 PM 18.9 °F 13.7 °F 14.0 °F 81% 29.68 in 4.0 mi SE 3.5 mph - N/A Snow Light Snow
7:55 PM 18.5 °F - 14.0 °F 83% 29.68 in 4.0 mi Calm Calm - N/A Snow Light Snow
8:15 PM 18.1 °F - 13.6 °F 83% 29.68 in 4.0 mi Calm Calm - N/A Snow Light Snow
8:35 PM 17.6 °F - 13.3 °F 83% 29.69 in 5.0 mi Calm Calm - N/A Snow Light Snow
8:55 PM 17.4 °F - 13.1 °F 83% 29.69 in 10.0 mi Calm Calm - N/A Snow Light Snow
9:15 PM 16.9 °F - 12.9 °F 84% 29.69 in 10.0 mi Calm Calm - N/A Snow Light Snow
9:35 PM 16.3 °F - 12.7 °F 86% 29.69 in 10.0 mi Calm Calm - N/A Snow Light Snow
9:55 PM 14.7 °F - 11.7 °F 88% 29.69 in 7.0 mi Calm Calm - N/A Snow Light Snow
10:15 PM 12.0 °F - 8.6 °F 86% 29.69 in 4.0 mi Calm Calm - N/A Snow Light Snow
10:35 PM 12.0 °F - 8.8 °F 87% 29.68 in 2.5 mi Calm Calm - N/A Snow Light Snow
10:55 PM 11.3 °F - 8.1 °F 87% 29.68 in 4.0 mi Calm Calm - N/A Snow Light Snow
11:15 PM 12.7 °F - 9.5 °F 87% 29.69 in 4.0 mi Calm Calm - N/A Snow Light Snow
11:35 PM 12.0 °F - 8.6 °F 86% 29.69 in 2.5 mi Calm Calm - N/A Snow Light Snow
11:55 PM 14.2 °F - 11.1 °F 88% 29.70 in 4.0 mi Calm Calm - N/A Snow Light Snow